Wetbulb
74.85 74.18 74.38 75.38 74.55 74.57 74.93 75.59 77.12 77.78 77.56 77.52 77.21 76.88 76.77 75.89 75.85 76.47 76.01 75.84 76.44 76.11
74.26 74.35 74.49 75.44 75.97 75.15 76.45 75.76 76.87 77.32 77.39 77.72 77.24 77.29 77.01 75.41 75.78 76.57 76.38 75.97 76.38 75.66
73.28 74.11 74.69 74.83 75.22 75.86 76.31 76.72 76.44 76.94 77.17 77.33 77.38 77.14 77.03 76.03 76.53 76.48 75.99 75.87 76.53 76.32
73.45 73.12 73.73 73.45 74.42 75.55 76.21 76.81 76.83 77.19 77.11 77.36 77.03 77.43 77.18 76.89 76.36 76.21 76.09 76.43 76.08 76.02
73.61 73.45 72.84 73.15 73.73 75.11 75.63 76.44 76.78 77.22 76.99 77.19 77.17 77.35 76.71 76.38 76.11 75.84 75.64 75.86 75.99 75.51
71.63 72.51 72.90 73.34 73.65 74.20 74.47 75.42 75.66 76.55 76.68 76.91 77.00 77.16 77.18 77.20 76.59 76.58 76.44 75.96 75.88 75.83
71.65 71.63 72.08 74.39 74.25 73.90 74.24 74.63 74.56 75.55 75.86 76.52 77.41 77.20 77.08 77.00 76.96 76.97 76.86 76.74 76.57 76.46
73.51 73.70 72.45 71.63 74.16 74.30 74.35 74.11 74.72 74.83 75.08 75.68 75.75 75.86 76.89 77.00 76.78 76.60 76.58 76.83 76.83 76.65
72.93 73.74 73.52 73.46 73.04 74.69 74.23 73.95 74.12 73.97 74.36 74.75 74.18 68.11 67.75 74.11 76.55 76.81 76.52 76.10 76.75 77.08
72.87 72.72 73.20 73.38 73.46 73.87 73.79 74.27 73.69 73.80 74.16 74.81 75.83 65.49 65.63 68.24 75.69 76.43 76.80 76.80 76.78 76.37
72.41 72.42 73.29 73.19 72.74 73.35 73.02 73.15 73.55 73.28 74.28 74.57 74.61 64.59 63.73 66.19 75.11 76.44 76.71 76.99 77.25 77.08
66.88 71.26 72.63 72.69 72.85 72.99 72.71 72.56 72.46 72.94 73.50 73.88 74.39 62.86 62.20 65.66 73.92 74.42 76.52 77.16 77.22 77.25
66.03 67.18 67.60 72.47 73.63 74.06 74.05 73.03 72.96 72.60 73.69 69.97 74.25 64.77 60.19 63.65 72.20 72.99 73.05 75.55 77.20 66.83
63.44 64.89 66.91 68.39 69.92 73.05 74.02 74.42 74.15 73.19 73.89 74.10 72.94 72.98 59.80 58.45 72.28 72.66 72.81 72.74 73.08 73.50
MSLP
1019.25 1019.40 1019.62 1019.87 1019.85 1019.98 1020.02 1020.07 1020.36 1020.86 1021.18 1021.51 1021.84 1022.08 1022.32 1022.20 1022.30 1022.52 1022.86 1023.12 1023.19 1023.01
1018.83 1019.12 1019.16 1019.48 1019.91 1019.86 1019.88 1019.85 1020.23 1020.43 1020.76 1021.12 1021.50 1021.82 1022.12 1022.18 1022.33 1022.50 1022.76 1022.95 1023.09 1023.06
1018.29 1018.64 1019.00 1019.44 1019.33 1019.57 1019.64 1019.74 1019.91 1020.22 1020.42 1020.65 1021.12 1021.52 1021.80 1021.98 1022.00 1022.26 1022.48 1022.64 1022.88 1022.95
1017.58 1018.18 1018.54 1018.79 1019.12 1019.12 1019.26 1019.47 1019.72 1019.94 1020.17 1020.41 1020.74 1021.07 1021.50 1021.63 1021.79 1022.05 1022.17 1022.39 1022.59 1022.67
1016.80 1017.45 1018.06 1018.34 1018.38 1018.74 1018.95 1019.04 1019.29 1019.57 1019.82 1020.04 1020.35 1020.72 1021.04 1021.22 1021.27 1021.48 1021.76 1021.88 1022.13 1022.21
1016.46 1016.96 1017.23 1017.61 1017.97 1018.31 1018.52 1018.74 1018.94 1019.19 1019.44 1019.59 1019.81 1020.16 1020.47 1020.72 1020.85 1020.98 1021.13 1021.30 1021.49 1021.64
1015.87 1016.17 1016.53 1016.82 1017.30 1017.59 1017.97 1018.25 1018.61 1018.84 1018.92 1019.10 1019.27 1019.50 1019.78 1020.14 1020.34 1020.46 1020.54 1020.75 1020.89 1021.02
1014.90 1015.33 1015.94 1016.33 1016.58 1016.96 1017.32 1017.57 1017.99 1018.33 1018.58 1018.71 1018.77 1018.82 1019.13 1019.36 1019.58 1019.84 1019.93 1020.14 1020.34 1020.42
1014.50 1014.87 1015.15 1015.56 1015.78 1016.10 1016.41 1016.90 1017.24 1017.62 1017.82 1018.03 1018.09 1018.08 1018.45 1018.64 1018.78 1019.03 1019.25 1019.40 1019.58 1019.84
1014.36 1014.44 1014.58 1014.88 1015.26 1015.45 1015.58 1015.90 1016.36 1016.62 1017.03 1017.11 1017.28 1017.46 1017.76 1018.07 1018.06 1018.16 1018.34 1018.51 1018.70 1018.91
1014.17 1014.12 1014.10 1014.28 1014.38 1014.65 1015.01 1015.22 1015.43 1015.66 1016.01 1016.30 1016.34 1016.64 1016.90 1017.22 1017.58 1017.48 1017.48 1017.60 1017.81 1018.03
1014.92 1014.16 1013.86 1013.82 1013.82 1014.04 1014.34 1014.38 1014.55 1014.82 1015.08 1015.31 1015.36 1015.65 1016.14 1016.65 1016.66 1016.43 1016.41 1016.60 1016.84 1017.18
1015.23 1014.70 1014.21 1013.81 1013.43 1013.37 1013.52 1013.58 1013.64 1013.84 1014.09 1014.30 1014.36 1014.68 1015.06 1015.70 1015.84 1015.35 1015.22 1015.40 1015.67 1016.06
1015.75 1015.04 1014.32 1014.14 1013.80 1013.26 1013.06 1012.94 1012.88 1012.98 1013.12 1013.28 1013.36 1013.54 1013.91 1014.50 1014.79 1014.35 1014.15 1014.02 1013.99 1014.44
Wind_Speed
13 9 9 9 7 7 7 7 8 8 7 6 6 5 5 4 4 4 4 4 2 1
13 13 11 10 9 7 8 6 8 8 8 7 6 6 6 5 5 4 4 4 4 4
15 14 12 11 11 10 8 8 8 9 9 9 8 7 8 6 6 6 5 5 5 5
14 15 14 13 12 12 10 8 9 9 9 9 9 9 9 9 7 8 7 6 6 7
13 13 14 14 14 13 12 10 10 9 9 10 10 10 11 10 9 10 9 8 8 8
12 12 15 15 14 13 13 13 12 10 10 11 11 11 11 11 11 11 10 9 9 9
13 13 13 14 14 14 13 13 13 13 13 11 10 11 11 11 11 11 11 10 10 10
16 15 12 11 13 14 14 14 14 13 14 13 12 10 12 12 11 11 12 11 11 11
13 13 14 15 15 14 14 14 14 15 15 15 13 12 13 12 11 12 11 12 12 12
13 14 14 14 14 14 14 14 14 15 15 16 16 12 15 17 13 12 12 13 12 12
14 15 14 14 15 14 13 14 13 15 15 15 14 14 17 17 17 13 15 14 14 14
9 9 13 14 14 13 13 13 14 14 15 16 16 15 17 15 16 16 16 15 15 15
9 6 7 10 14 13 13 14 12 14 15 16 17 14 17 17 14 15 14 15 15 15
11 9 5 7 5 7 12 13 13 14 13 15 16 17 18 19 16 14 13 14 13 14
Wind_Direction
211 213 214 211 206 209 207 202 188 195 205 188 188 198 211 223 231 205 207 201 219 208
212 217 217 211 217 215 219 211 197 195 202 190 188 198 193 216 212 214 206 214 218 241
219 215 216 221 208 214 216 216 197 200 200 198 194 202 198 206 205 216 215 227 219 236
214 219 214 215 223 219 213 208 210 204 199 201 201 203 208 214 206 214 219 220 226 232
209 208 218 220 215 218 224 214 216 208 205 202 205 200 208 215 217 214 216 215 217 231
211 206 217 221 220 219 222 224 223 218 214 208 206 205 212 215 217 221 223 222 218 225
214 213 216 222 220 216 220 223 226 228 228 222 213 207 211 213 221 227 226 226 225 225
224 222 215 214 219 222 221 223 225 227 234 232 226 216 210 212 215 223 227 227 231 229
230 227 223 219 216 216 219 222 222 227 230 230 234 219 201 210 214 218 223 226 228 237
245 233 227 228 228 226 222 221 223 227 229 231 232 215 203 208 225 223 222 224 226 229
246 245 238 231 227 226 229 226 226 230 229 232 234 214 207 203 225 232 233 229 227 230
345 301 250 241 234 230 230 227 230 235 235 231 236 214 213 204 225 232 233 233 232 231
318 312 327 293 245 245 236 237 232 236 235 234 239 221 214 206 234 231 232 232 234 215
317 315 291 302 310 272 241 245 235 238 235 235 232 234 209 204 222 235 229 234 232 233